Cork, Ireland

8:55 AM IST on May 27, 2017 (GMT +0100)
Cork

Weather History for EICK - December, 2012

Change the Weather History Date:

Monday, December 31, 2012

  Actual Average Record
Temperature  
Mean Temperature 44 °F -  
Max Temperature 50 °F 46 °F 53 °F (2011)
Min Temperature 37 °F 37 °F 28 °F (2001)
Degree Days  
Heating Degree Days 22    
Moisture  
Dew Point 44 °F    
Average Humidity 93    
Maximum Humidity 100    
Minimum Humidity 81    
Precipitation  
Precipitation 0.04 in 0.19 in - ()
Sea Level Pressure  
Sea Level Pressure 29.46 in    
Wind  
Wind Speed 19 mph ()    
Max Wind Speed 31 mph    
Max Gust Speed 45 mph    
Visibility 6.0 miles    
Events Rain    
Averages and records for this station are not official NWS values.
T = Trace of Precipitation, MM = Missing Value Source: Averaged Metar Reports

Daily Weather History Graph

Daily Weather History Graph

Search for Another Location

Airport or City:

Trip Planner

Search our weather history database for the weather conditions in past years. The results will help you decide how hot, cold, wet, or windy it might be!

Date:

Astronomy

Dec. 31, 2012 Rise Set
Actual Time 8:41 AM GMT 4:33 PM GMT
Civil Twilight 8:00 AM GMT 5:13 PM GMT
Nautical Twilight 7:17 AM GMT 5:56 PM GMT
Astronomical Twilight 6:36 AM GMT 6:37 PM GMT
Moon 8:16 PM GMT (12/31) 9:52 AM GMT (12/31)
Length of Visible Light 9h 12m
Length of Day
7h 51m
Waning Gibbous, 91% of the Moon is Illuminated
Dec 31
Waning Gibbous
Jan 5
Last Quarter
Jan 11
New
Jan 18
First Quarter
Jan 27
Full

Hourly Weather History & Observations

Time (GMT) Temp. Windchill Dew Point Humidity Pressure Visibility Wind Dir Wind Speed Gust Speed Precip Events Conditions
12:00 AM 49 °F - 49 °F 99% 29.52 in 3 mi SSW 29.1 mph - - Rain Light Rain
12:00 AM 50.0 °F - 48.2 °F 94% 29.50 in 3.1 mi SSW 28.8 mph 43.7 mph N/A Rain Light Rain
12:30 AM 50.0 °F - 48.2 °F 94% 29.47 in 3.1 mi SSW 31.1 mph - N/A Rain Light Rain
1:00 AM 48.2 °F - 48.2 °F 100% 29.44 in 3.1 mi SSW 29.9 mph 42.6 mph N/A Rain Light Rain
1:30 AM 50.0 °F - 50.0 °F 100% 29.44 in 2.8 mi SSW 29.9 mph 41.4 mph N/A Rain Light Rain
2:00 AM 50.0 °F - 50.0 °F 100% 29.42 in 3.1 mi SSW 28.8 mph 41.4 mph N/A Rain Light Rain
2:30 AM 50.0 °F - 50.0 °F 100% 29.42 in 2.5 mi SSW 28.8 mph 44.9 mph N/A Rain Light Rain
3:00 AM 50.0 °F - 50.0 °F 100% 29.42 in 2.5 mi SSW 28.8 mph 40.3 mph N/A Rain Light Rain
3:30 AM 50.0 °F - 50.0 °F 100% 29.39 in 5.6 mi SSW 28.8 mph 40.3 mph N/A Rain Light Rain
4:00 AM 50.0 °F - 50.0 °F 100% 29.39 in 6.2 mi SSW 28.8 mph - N/A Rain Light Rain
4:30 AM 50.0 °F - 50.0 °F 100% 29.36 in 6.2 mi SW 25.3 mph 38.0 mph N/A Rain Light Rain
5:00 AM 50.0 °F - 50.0 °F 100% 29.36 in 6.2 mi SW 21.9 mph 33.4 mph N/A   Mostly Cloudy
5:30 AM 50.0 °F - 50.0 °F 100% 29.36 in 6.2 mi SW 19.6 mph - N/A   Mostly Cloudy
6:00 AM 50 °F - 49 °F 96% 29.38 in 12 mi SW 20.1 mph - - Rain Light Rain
6:00 AM 50.0 °F - 50.0 °F 100% 29.36 in 6.2 mi SW 19.6 mph - N/A   Mostly Cloudy
6:30 AM 50.0 °F - 48.2 °F 94% 29.36 in 6.2 mi SW 17.3 mph - N/A   Mostly Cloudy
7:00 AM 48.2 °F - 48.2 °F 100% 29.36 in 6.2 mi SW 15.0 mph - N/A   Mostly Cloudy
7:30 AM 50.0 °F - 48.2 °F 94% 29.36 in 6.2 mi WSW 16.1 mph - N/A   Mostly Cloudy
8:00 AM 48.2 °F - 48.2 °F 100% 29.36 in 5.0 mi SW 15.0 mph - N/A   Mostly Cloudy
8:30 AM 48.2 °F - 48.2 °F 100% 29.36 in 5.6 mi SW 12.7 mph - N/A   Mostly Cloudy
9:00 AM 48.2 °F - 46.4 °F 93% 29.39 in 5.6 mi WSW 15.0 mph - N/A   Mostly Cloudy
9:30 AM 46.4 °F 41.9 °F 46.4 °F 100% 29.39 in 6.2 mi WSW 9.2 mph - N/A   Partly Cloudy
10:00 AM 46.4 °F 42.4 °F 46.4 °F 100% 29.39 in 6.2 mi WSW 8.1 mph - N/A   Scattered Clouds
10:30 AM 48.2 °F - 46.4 °F 93% 29.39 in 6.2 mi WSW 11.5 mph - N/A   Partly Cloudy
11:00 AM 48.2 °F - 46.4 °F 93% 29.42 in 6.2 mi WSW 10.4 mph - N/A   Partly Cloudy
11:30 AM 48.2 °F - 46.4 °F 93% 29.42 in 6.2 mi WSW 9.2 mph - N/A   Partly Cloudy
12:00 PM 50 °F - 48 °F 89% 29.43 in 9 mi WSW 8.9 mph - -   Mostly Cloudy
12:00 PM 50.0 °F - 48.2 °F 94% 29.42 in 6.2 mi WSW 8.1 mph - N/A   Mostly Cloudy
12:30 PM 46.4 °F 41.5 °F 46.4 °F 100% 29.42 in 6.2 mi WNW 10.4 mph - N/A Rain Light Rain Showers
1:00 PM 46.4 °F 42.4 °F 46.4 °F 100% 29.42 in 6.2 mi NW 8.1 mph - N/A Rain Light Rain Showers
1:30 PM 46.4 °F 41.9 °F 46.4 °F 100% 29.42 in 6.2 mi NW 9.2 mph - N/A Rain Light Rain Showers
2:00 PM 46.4 °F 40.1 °F 46.4 °F 100% 29.42 in 6.2 mi WNW 15.0 mph - N/A   Mostly Cloudy
2:30 PM 46.4 °F 40.1 °F 42.8 °F 87% 29.44 in 6.2 mi WNW 15.0 mph - N/A   Mostly Cloudy
3:00 PM 44.6 °F 36.6 °F 42.8 °F 93% 29.44 in 6.2 mi WNW 19.6 mph - N/A   Mostly Cloudy
3:30 PM 44.6 °F 36.6 °F 39.2 °F 81% 29.44 in 6.2 mi WNW 19.6 mph - N/A   Partly Cloudy
4:00 PM 44.6 °F 37.2 °F 39.2 °F 81% 29.47 in 6.2 mi WNW 17.3 mph - N/A   Partly Cloudy
4:30 PM 44.6 °F 37.4 °F 39.2 °F 81% 29.47 in 6.2 mi WNW 16.1 mph - N/A   Scattered Clouds
5:00 PM 42.8 °F 36.6 °F 39.2 °F 87% 29.50 in 6.2 mi WNW 11.5 mph - N/A Rain Light Rain Showers
5:30 PM 42.8 °F 35.4 °F 39.2 °F 87% 29.50 in 6.2 mi WNW 15.0 mph - N/A   Mostly Cloudy
6:00 PM 42 °F - 38 °F 82% 29.57 in 16 mi WNW 13.4 mph - - Rain Light Rain Showers
6:00 PM 42.8 °F 35.8 °F 39.2 °F 87% 29.53 in 6.2 mi WNW 13.8 mph - N/A   Scattered Clouds
6:30 PM 41.0 °F 34.3 °F 37.4 °F 87% 29.53 in 6.2 mi West 11.5 mph - N/A   Mostly Cloudy
7:00 PM 41.0 °F 33.9 °F 37.4 °F 87% 29.56 in 6.2 mi West 12.7 mph - N/A   Mostly Cloudy
7:30 PM 41.0 °F 33.9 °F 37.4 °F 87% 29.56 in 6.2 mi West 12.7 mph - N/A   Mostly Cloudy
8:00 PM 41.0 °F 35.2 °F 37.4 °F 87% 29.56 in 6.2 mi West 9.2 mph - N/A   Scattered Clouds
8:30 PM 41.0 °F 34.3 °F 37.4 °F 87% 29.59 in 6.2 mi West 11.5 mph - N/A   Mostly Cloudy
9:00 PM 39.2 °F 31.6 °F 35.6 °F 87% 29.59 in 6.2 mi West 12.7 mph - N/A   Scattered Clouds
9:30 PM 39.2 °F 33.0 °F 35.6 °F 87% 29.59 in 6.2 mi WSW 9.2 mph - N/A   Scattered Clouds
10:00 PM 39.2 °F 32.5 °F 35.6 °F 87% 29.62 in 6.2 mi WSW 10.4 mph - N/A   Scattered Clouds
10:30 PM 39.2 °F 31.6 °F 35.6 °F 87% 29.62 in 6.2 mi West 12.7 mph - N/A   Mostly Cloudy
11:00 PM 37.4 °F 30.8 °F 35.6 °F 93% 29.62 in 6.2 mi WSW 9.2 mph - N/A   Partly Cloudy
11:30 PM 37.4 °F 30.3 °F 35.6 °F 93% 29.62 in 6.2 mi WSW 10.4 mph - N/A   Scattered Clouds